TimeMST,TemperatureF,Dew PointF,Humidity,Sea Level PressureIn,VisibilityMPH,Wind Direction,Wind SpeedMPH,Gust SpeedMPH,PrecipitationIn,Events,Conditions,WindDirDegrees,DateUTC
12:55 AM,70.0,41.0,35,29.94,10.0,South,3.5,-,N/A,,Scattered Clouds,170,2013-04-04 07:55:00
1:55 AM,66.9,42.1,40,29.94,10.0,Calm,Calm,-,N/A,,Scattered Clouds,0,2013-04-04 08:55:00
2:55 AM,66.0,41.0,40,29.94,10.0,Calm,Calm,-,N/A,,Scattered Clouds,0,2013-04-04 09:55:00
3:55 AM,64.9,39.9,40,29.94,10.0,South,4.6,-,N/A,,Scattered Clouds,180,2013-04-04 10:55:00
4:55 AM,64.0,37.9,38,29.94,10.0,Calm,Calm,-,N/A,,Scattered Clouds,0,2013-04-04 11:55:00
5:55 AM,64.9,37.0,36,29.94,10.0,Calm,Calm,-,N/A,,Mostly Cloudy,0,2013-04-04 12:55:00
6:55 AM,66.0,37.9,36,29.95,10.0,NNE,3.5,-,N/A,,Mostly Cloudy,30,2013-04-04 13:55:00
7:55 AM,69.1,37.9,32,29.97,10.0,Calm,Calm,-,N/A,,Mostly Cloudy,0,2013-04-04 14:55:00
8:55 AM,75.9,37.0,24,29.97,10.0,NNE,4.6,-,N/A,,Scattered Clouds,30,2013-04-04 15:55:00
9:55 AM,82.0,37.9,21,29.97,10.0,Calm,Calm,-,N/A,,Mostly Cloudy,0,2013-04-04 16:55:00
10:55 AM,87.1,37.0,17,29.97,10.0,West,3.5,-,N/A,,Mostly Cloudy,260,2013-04-04 17:55:00
11:55 AM,89.1,37.9,16,29.96,10.0,Variable,4.6,-,N/A,,Mostly Cloudy,0,2013-04-04 18:55:00
12:55 PM,89.1,36.0,15,29.93,10.0,WSW,4.6,-,N/A,,Overcast,250,2013-04-04 19:55:00
1:55 PM,90.0,36.0,15,29.90,10.0,West,8.1,-,N/A,,Overcast,280,2013-04-04 20:55:00
2:00 PM,-9999,-9999,N/A,-9999,-9999.0,North,-9999.0,-,N/A,,Unknown,0,2013-04-04 21:00:00
2:55 PM,90.0,35.1,14,29.88,10.0,West,8.1,-,N/A,,Overcast,280,2013-04-04 21:55:00
3:55 PM,90.0,35.1,14,29.86,10.0,WNW,8.1,-,N/A,,Mostly Cloudy,300,2013-04-04 22:55:00
4:55 PM,89.1,37.0,16,29.86,10.0,WNW,8.1,-,N/A,,Mostly Cloudy,290,2013-04-04 23:55:00
5:55 PM,88.0,37.0,16,29.85,10.0,WNW,5.8,-,N/A,,Mostly Cloudy,290,2013-04-05 00:55:00
6:55 PM,86.0,39.9,20,29.85,10.0,West,4.6,-,N/A,,Mostly Cloudy,280,2013-04-05 01:55:00
7:55 PM,82.9,44.1,25,29.86,10.0,West,5.8,-,N/A,,Mostly Cloudy,260,2013-04-05 02:55:00
8:55 PM,80.1,44.1,28,29.88,10.0,WSW,8.1,-,N/A,,Mostly Cloudy,250,2013-04-05 03:55:00
9:55 PM,78.1,34.0,20,29.90,10.0,WNW,9.2,-,N/A,,Clear,290,2013-04-05 04:55:00
10:55 PM,75.0,35.1,23,29.91,10.0,WNW,6.9,-,N/A,,Partly Cloudy,300,2013-04-05 05:55:00
11:55 PM,73.0,37.9,28,29.91,10.0,WNW,9.2,-,N/A,,Partly Cloudy,290,2013-04-05 06:55:00